Крылатское

Россия / Московская область     55°45′47″N   37°26′32″E
темп.,
°C
ветер,
м/с
пор.,
м/с
влажн.,
%
обл.,
%
осадки,
мм/ч
давл.,
гПа
погр.,
м
14 мая, пт
пт1400:00+10ююв279019 0.0 1017254
03:00+9ююв24945 0.0 1017116
06:00+10юв248991 0.0 1017132
09:00+15юв366797 0.0 1017518
12:00+18юв466450 0.0 10161175
15:00+21ююв5853100 0.1 10141590
18:00+18юв4669100 0.8 1013448
21:00+15в3988100 1.2 1012323
15 мая, сб
сб1500:00+14юв31097100 3.6 1011333
03:00+13вюв3796100 3.8 1010184
06:00+14юв39959 0.0 1010281
09:00+18ю3581100 0.1 1010529
12:00+22ююз46603 0.4 10091343
15:00+23ююз68454 0.8 10081812
18:00+21ююз695521 0.1 10091316
21:00+17ю4107510 0.2 1010629
16 мая, вс
вс1600:00+14ююз411875 0.0 1010524
03:00+13ююз39903 0.0 1011330
06:00+13ююз39880 0.0 1012336
09:00+17ююз58650 0.0 1012842
12:00+20ююз59473 0.0 10121757
15:00+20юз584897 0.0 10121997
18:00+20зюз565111 0.0 10131529
21:00+16зюз237258 0.0 101467
17 мая, пн
пн1700:00+15ююз1178100 0.0 101411
03:00+14юв227983 0.0 101523
06:00+14вюв248163 0.0 1015137
09:00+19вюв3563100 0.0 1015502
12:00+23вюв5750100 0.0 10131171
15:00+26юв684771 0.0 10111396
18:00+25юв5106239 0.0 1010965
21:00+21юв5137497 0.0 1009536
18 мая, вт
вт1800:00+19юв4137892 0.0 1009433
03:00+17юв4128132 0.0 1008367
06:00+16юв41178100 0.0 1007315
09:00+20юв5961100 0.0 1006501
12:00+24ююв6852100 0.0 1006960
15:00+23ююв5762100 0.1 10061125
18:00+19юв397993 4.2 1006610
21:00+18ююв51189100 6.3 1006740